Theta_e
346 347 347 347 350 351 343 342 342 344 346 350 350 349 347 351 346 349 352 353 354 353 353 352 351 353 354 353 353 354 354 352 353 352 351 351 350 350 350 350 349 348 349
346 348 347 349 351 351 347 342 343 343 343 344 350 350 349 344 346 346 352 353 350 350 350 352 354 354 353 354 353 353 348 349 351 351 348 350 348 350 350 349 348 347 348
344 347 347 347 350 349 348 346 343 343 345 344 344 347 348 344 351 350 353 349 355 355 354 354 354 354 351 348 350 352 351 350 348 346 350 349 346 348 350 349 349 348 347
345 347 348 343 348 347 344 344 348 346 342 343 347 341 343 348 351 351 352 352 352 353 353 353 353 348 346 347 347 347 350 344 344 346 348 350 349 349 348 344 347 347 345
347 347 347 347 346 343 344 343 342 347 343 341 340 339 344 351 352 353 349 349 351 349 347 350 353 352 348 345 345 348 351 343 340 345 347 347 348 349 349 348 347 346 344
349 349 349 351 352 344 343 341 340 339 340 340 340 341 343 347 348 353 348 352 349 348 346 349 352 348 347 347 344 344 340 338 341 342 343 342 343 341 345 346 347 344 344
349 350 351 348 349 347 345 345 344 343 344 342 345 344 348 350 353 351 348 350 344 344 347 350 348 347 346 346 344 343 338 334 341 343 344 344 341 339 342 338 337 337 338
349 350 349 348 351 346 347 347 347 346 345 344 345 350 352 347 348 348 350 349 340 343 344 345 346 347 347 345 346 345 339 330 339 341 341 342 346 347 347 346 346 344 343
351 349 346 348 350 348 347 350 349 350 349 350 348 349 348 347 349 348 350 346 345 340 343 345 345 346 346 347 346 344 335 324 333 334 334 335 335 341 339 341 341 340 340
349 348 347 350 350 351 352 349 349 348 348 348 350 351 350 349 350 349 347 347 343 342 344 344 345 345 344 345 345 344 341 327 334 336 334 329 324 322 318 316 315 320 325
350 349 348 350 351 351 352 351 349 348 349 349 352 352 351 352 352 351 346 343 341 342 342 342 344 345 343 344 344 345 344 334 335 334 334 322 321 319 317 316 314 316 315
347 348 348 349 350 351 349 352 352 351 353 353 354 353 354 352 352 350 347 341 340 340 341 343 343 342 345 348 349 350 348 338 336 334 334 327 325 324 323 322 321 319 317
347 348 349 349 350 349 349 351 351 351 353 351 350 352 349 349 350 349 349 348 348 342 345 344 346 348 347 349 349 350 350 342 337 337 334 331 330 329 328 328 327 326 325
347 348 349 350 350 351 350 350 352 350 352 351 352 349 344 347 345 347 348 346 342 340 344 344 349 347 348 349 348 347 350 346 338 339 339 336 335 333 333 332 331 330 330
347 348 348 351 350 351 348 348 348 350 350 350 347 343 344 348 346 345 343 344 342 341 344 345 346 348 347 351 349 343 348 348 343 339 341 340 339 338 337 336 335 335 334
346 347 348 350 350 349 348 346 347 347 349 347 345 346 345 346 343 346 342 341 340 343 345 345 345 347 348 350 349 344 345 346 343 341 342 342 342 341 340 340 340 339 338
345 346 347 348 348 348 348 348 347 346 344 344 344 343 345 345 345 342 341 339 342 345 346 347 345 346 351 350 348 346 345 344 346 343 343 344 344 344 344 343 342 342 342
343 346 347 346 347 348 348 348 346 345 346 347 347 348 346 346 344 341 341 340 345 346 347 348 348 351 353 351 350 351 349 346 344 344 344 345 345 346 346 346 345 344 344
344 344 347 347 347 347 347 346 346 347 348 348 349 348 345 346 345 345 346 346 346 347 347 346 349 355 353 350 351 350 351 349 349 347 344 344 345 345 348 348 346 347 347
345 345 346 348 348 346 348 346 347 349 349 349 348 349 347 347 344 343 349 347 347 348 350 348 352 352 350 353 350 346 350 352 348 347 348 348 349 347 348 346 348 349 347
346 345 347 348 349 349 349 348 348 347 349 349 349 348 346 346 345 346 351 351 346 346 346 344 352 353 352 352 352 349 355 350 351 349 346 346 347 346 344 341 341 347 348
346 346 346 348 348 347 349 348 347 347 349 349 350 348 346 346 346 348 348 351 348 350 346 345 348 353 351 351 353 352 354 351 346 346 342 344 343 341 343 342 341 341 341
346 348 347 346 348 347 348 349 350 349 350 350 350 350 348 345 345 346 348 349 349 346 351 347 351 351 352 352 349 351 350 349 344 342 341 341 340 341 341 342 336 337 338
345 347 348 347 346 347 348 350 351 350 350 350 350 351 351 347 346 347 348 348 349 353 349 351 351 351 347 350 352 350 347 346 346 346 344 343 341 339 337 340 340 343 346
345 347 348 348 347 348 349 350 352 352 352 352 351 352 352 349 348 349 349 351 352 356 351 349 351 351 351 351 353 352 347 347 343 346 347 342 340 341 340 341 344 353 354
345 347 348 349 346 349 349 351 353 352 353 353 353 352 351 349 350 346 346 346 348 352 353 353 351 352 352 352 354 353 351 350 349 348 347 344 343 341 340 341 344 350 353
Wind_Speed
10 9 11 9 10 10 12 13 12 12 13 14 17 16 14 13 15 16 16 17 17 18 18 18 18 17 16 17 17 16 17 17 17 17 15 15 15 14 14 14 14 12 14
16 11 12 11 9 9 10 12 12 12 13 15 18 15 13 17 16 16 16 17 17 19 19 17 16 16 16 15 15 16 15 14 13 14 14 14 14 13 12 13 12 11 13
15 12 11 11 10 9 10 11 14 14 17 21 17 15 15 16 14 15 15 17 17 18 17 16 16 16 15 15 15 15 15 13 12 13 14 12 11 11 12 12 12 11 12
15 12 11 12 11 9 10 11 13 15 22 20 15 17 17 14 15 15 15 15 16 15 15 14 14 14 13 12 10 11 13 12 10 11 11 10 10 10 11 11 10 10 11
15 12 11 10 9 9 10 11 14 17 20 18 18 16 13 14 15 15 15 14 13 15 14 14 14 14 14 15 14 10 6 9 10 10 10 9 9 9 10 9 9 8 9
15 12 12 10 9 9 10 11 14 15 16 15 14 13 13 14 14 15 14 12 12 13 13 13 12 12 13 13 12 13 11 10 10 9 9 10 9 7 7 7 9 9 8
16 14 12 11 9 9 10 10 10 11 12 12 12 11 11 12 12 13 12 9 10 11 11 10 11 12 11 11 12 12 13 10 9 9 9 9 8 9 8 8 7 6 5
15 14 12 12 10 8 9 9 9 10 11 10 10 10 10 11 11 10 9 9 9 9 9 9 11 12 12 11 11 13 14 11 9 9 9 8 9 9 8 8 8 7 6
13 12 11 10 9 10 8 8 10 10 11 10 8 9 10 10 11 9 9 9 10 9 9 9 11 11 11 11 10 13 14 12 9 9 8 8 4 4 4 3 3 4 5
13 11 10 11 11 10 10 9 9 9 8 9 7 8 9 9 9 11 10 10 10 10 8 8 8 8 10 10 10 11 14 12 9 8 8 7 9 8 7 6 6 6 5
12 11 11 11 11 10 9 9 9 9 9 8 6 7 7 8 8 9 9 9 9 8 6 5 5 7 9 10 11 11 11 7 7 7 8 10 9 10 10 10 10 9 9
13 12 11 11 12 11 9 8 8 8 8 7 6 6 5 6 7 7 7 8 7 6 5 4 5 7 9 8 7 9 6 6 7 7 7 10 9 9 9 10 10 10 11
16 13 12 12 12 12 11 10 9 8 8 7 7 5 4 5 5 5 5 5 4 5 3 4 6 7 9 8 7 4 4 3 4 5 5 8 7 7 7 8 8 8 8
17 16 14 14 13 12 11 10 10 9 8 6 5 6 5 5 5 5 4 4 5 4 3 5 7 9 9 10 8 4 2 1 2 2 3 5 5 5 5 5 5 5 5
17 18 17 15 14 12 12 12 12 10 9 6 7 7 7 4 5 5 4 4 4 3 3 5 8 9 11 9 8 8 3 2 3 3 2 4 3 3 4 4 4 4 4
18 17 16 16 15 13 12 14 12 11 8 8 7 6 7 5 5 5 4 3 2 3 4 7 7 10 9 8 8 7 5 3 4 5 4 5 6 5 5 5 5 5 5
19 17 17 16 15 15 14 14 12 11 9 8 8 9 8 6 6 6 4 2 1 4 6 6 8 9 9 8 7 7 6 6 6 7 7 7 7 8 9 8 8 8 8
18 20 18 17 16 17 15 13 12 11 10 9 9 9 10 8 7 6 3 1 2 4 6 6 9 9 8 7 8 7 7 8 8 9 9 9 9 8 10 10 11 11 12
20 20 19 19 18 18 16 14 13 11 11 11 11 10 12 10 9 6 3 2 3 5 5 7 7 9 8 9 10 10 7 7 9 7 10 11 11 12 10 12 13 14 14
20 20 20 19 18 20 15 15 12 10 10 10 11 11 12 10 10 8 4 4 5 5 4 5 9 8 8 10 12 8 5 5 6 6 8 8 9 9 9 11 11 11 12
20 20 22 21 20 18 17 16 14 14 12 11 12 13 13 12 11 9 5 5 5 4 4 5 8 7 6 10 9 8 3 4 3 4 6 5 5 6 7 7 8 9 8
25 25 23 23 23 24 18 17 14 15 13 12 11 14 15 15 14 10 8 6 6 5 5 5 7 5 5 8 7 5 3 1 3 3 4 3 4 8 7 8 9 11 11
27 26 27 28 26 26 22 16 13 11 8 11 11 12 15 17 16 14 11 9 8 7 5 5 5 3 5 4 5 4 3 3 8 3 3 5 5 9 8 9 13 14 14
30 29 29 30 30 27 25 20 21 18 16 15 14 13 13 17 17 17 15 12 10 7 6 5 5 4 4 4 3 2 2 2 3 4 4 5 8 11 11 12 10 9 9
31 30 30 31 30 27 28 25 23 19 18 15 15 15 16 16 18 16 16 13 11 8 8 8 7 6 4 3 3 2 2 2 2 3 7 11 13 11 8 11 7 4 10
31 31 29 29 34 31 30 29 26 23 19 16 16 17 17 18 18 21 20 18 14 11 11 9 9 8 7 6 5 5 6 6 8 6 7 12 13 11 14 7 6 6 4
Wind_Direction
147 138 128 114 105 102 110 117 125 137 135 129 129 123 106 98 98 91 93 88 90 92 91 90 91 87 85 82 80 78 76 74 76 77 74 80 79 81 81 85 81 84 90
149 143 141 135 119 114 107 106 111 126 130 129 124 121 110 104 103 92 89 88 92 91 92 95 92 89 85 82 81 76 77 81 81 76 75 73 77 80 82 81 88 94 92
143 145 145 137 133 122 109 99 103 105 116 120 120 113 112 103 98 96 94 99 96 96 95 94 93 90 84 79 75 76 70 69 74 84 75 74 73 77 78 78 81 85 86
144 147 144 147 142 129 114 100 96 99 112 117 114 111 108 104 99 97 99 99 99 96 97 93 85 80 76 72 68 74 59 59 69 75 70 71 75 81 79 78 81 81 82
145 149 147 144 142 140 124 109 96 107 111 114 110 105 102 102 105 102 98 96 98 95 84 82 80 78 73 70 68 70 60 51 67 68 69 69 68 71 73 72 72 73 88
142 142 144 139 141 144 131 121 113 112 113 114 113 119 114 107 103 96 103 103 99 92 91 77 72 72 64 60 56 49 47 53 65 68 71 63 68 71 72 77 74 77 82
144 144 140 142 140 144 143 137 138 130 125 121 127 127 107 101 97 98 100 100 97 93 87 75 69 61 59 57 49 40 44 52 67 67 65 64 61 67 65 68 73 76 77
148 150 149 150 148 143 145 151 143 134 126 123 123 117 105 99 94 103 103 97 99 98 93 79 64 57 54 51 43 36 31 53 59 64 66 65 68 59 70 67 71 74 72
151 154 154 155 153 148 155 154 152 142 132 131 129 120 112 108 106 112 100 95 97 106 103 83 63 54 48 44 35 30 31 44 62 65 66 67 75 77 62 73 59 72 85
159 163 165 161 156 155 156 161 154 148 142 147 142 132 119 110 105 103 93 93 97 106 101 82 60 50 41 33 27 25 29 45 61 66 65 70 71 68 70 73 80 86 90
167 173 173 170 161 158 155 158 157 150 149 155 147 131 133 121 111 99 107 96 101 107 98 76 52 32 23 18 17 12 26 40 59 61 62 63 64 62 65 67 68 72 75
177 182 182 179 168 160 161 159 152 152 156 166 157 148 137 128 119 115 113 115 118 114 105 64 29 7 6 358 354 6 10 31 49 58 61 61 59 55 57 59 61 63 66
181 184 187 183 176 170 171 167 161 161 168 172 177 168 152 140 134 125 120 109 104 105 59 22 3 359 359 357 342 337 355 23 38 50 55 57 59 52 51 53 54 54 56
187 186 188 188 187 182 177 173 176 178 183 182 183 184 171 150 157 139 124 126 115 101 49 15 2 9 12 6 6 343 327 325 355 21 26 39 48 49 41 41 42 43 46
193 191 189 190 190 191 185 185 190 193 193 194 198 193 180 164 163 155 153 130 117 79 26 7 0 9 9 4 14 22 356 303 277 304 319 337 347 1 4 356 359 2 4
195 197 194 195 196 198 197 198 196 205 204 206 208 204 196 197 186 179 161 144 86 45 8 358 6 3 358 360 6 10 5 324 298 286 283 294 308 306 301 306 321 321 321
197 196 199 200 200 204 208 210 208 213 211 213 213 209 220 225 219 190 174 149 47 6 1 6 3 351 346 351 347 341 336 325 286 283 284 284 286 295 290 292 296 300 305
193 198 198 199 203 206 213 214 215 214 212 217 218 226 232 229 218 204 192 179 342 344 350 4 355 348 349 355 345 335 323 313 303 288 281 277 282 283 293 296 293 290 291
194 193 198 199 203 204 212 213 215 220 223 227 225 230 227 225 219 210 218 247 317 318 335 351 347 344 345 348 341 329 317 305 305 279 289 287 286 290 285 292 294 290 289
197 196 198 201 204 205 205 213 217 221 224 221 220 220 218 222 219 218 241 263 294 294 312 343 350 350 345 347 337 327 325 314 306 301 300 299 292 296 289 295 292 289 298
204 200 200 201 206 201 203 205 213 221 222 220 216 217 219 216 213 219 234 257 264 279 303 335 349 348 353 356 344 344 343 351 346 324 324 312 319 321 307 308 309 298 293
207 206 204 206 207 209 205 202 206 209 218 215 212 215 215 217 211 219 228 239 251 267 291 311 337 339 341 3 350 326 344 272 8 305 328 332 323 333 317 314 318 310 298
209 208 208 209 211 210 207 200 201 200 209 204 208 208 212 215 216 219 222 231 252 260 264 295 320 315 336 345 2 345 318 356 333 330 334 322 336 340 339 317 315 310 308
212 210 210 211 212 213 209 200 198 199 204 211 209 213 212 218 219 220 223 234 247 252 250 278 289 283 305 317 327 5 2 329 333 318 331 331 337 337 333 330 315 333 331
211 209 210 209 211 209 209 204 202 206 209 212 213 213 216 222 226 226 230 239 247 252 258 276 267 271 274 277 284 303 292 286 265 298 313 321 326 331 333 336 324 26 30
208 209 209 205 210 209 210 210 208 207 208 208 208 212 214 219 224 230 230 238 248 257 267 268 255 267 262 264 272 277 287 305 314 308 305 316 312 318 324 322 327 295 345